This is the latest recevied weather packets stored in our database for station/object KB9ZGZ. If no packets are shown the sender has not sent any weather packets the latest 10 day(s).
| Time | Temp. | Humidity | Pressure | Rain* | Wind** | Luminosity | Snow |
|---|---|---|---|---|---|---|---|
| 1777850119 | 22.22° C | 45% | 1003.9 hPa | 0 mm | - | - | - |
| 1777849214 | 22.78° C | 45% | 1003.9 hPa | 0 mm | - | - | - |
| 1777848311 | 22.78° C | 44% | 1004.2 hPa | 0 mm | - | - | - |
| 1777847410 | 22.78° C | 43% | 1004.3 hPa | 0 mm | - | - | - |
| 1777846510 | 22.78° C | 44% | 1004.4 hPa | 0 mm | - | - | - |
| 1777845608 | 22.78° C | 42% | 1004.5 hPa | 0 mm | - | - | - |
| 1777844706 | 22.78° C | 41% | 1004.5 hPa | 0 mm | - | - | - |
| 1777843807 | 22.78° C | 43% | 1004.8 hPa | 0 mm | - | - | - |
| 1777842959 | 22.22° C | 42% | 1005.1 hPa | 0 mm | - | - | - |
| 1777842057 | 21.67° C | 43% | 1005 hPa | 0 mm | - | - | - |
| 1777841124 | 21.11° C | 43% | 1005.5 hPa | 0 mm | - | - | - |
| 1777840241 | 20.56° C | 44% | 1005.6 hPa | 0 mm | - | - | - |
| 1777839317 | 20.56° C | 46% | 1005.9 hPa | 0 mm | - | - | - |
| 1777838414 | 20° C | 47% | 1006.2 hPa | 0 mm | - | - | - |
| 1777837526 | 19.44° C | 46% | 1006.1 hPa | 0 mm | - | - | - |
| 1777836611 | 19.44° C | 45% | 1006.6 hPa | 0 mm | - | - | - |
| 1777835707 | 18.89° C | 46% | 1006.5 hPa | 0 mm | - | - | - |
| 1777834804 | 18.89° C | 45% | 1006.7 hPa | 0 mm | - | - | - |
| 1777833902 | 18.33° C | 48% | 1006.7 hPa | 0 mm | - | - | - |
| 1777833002 | 18.33° C | 48% | 1007.2 hPa | 0 mm | - | - | - |
| 1777832162 | 17.78° C | 49% | 1007.7 hPa | 0 mm | - | - | - |
| 1777831256 | 17.78° C | 48% | 1007.9 hPa | 0 mm | - | - | - |
| 1777830353 | 17.78° C | 47% | 1008.3 hPa | 0 mm | - | - | - |
| 1777829451 | 17.78° C | 49% | 1009.5 hPa | 0 mm | - | - | - |
| 1777828549 | 17.78° C | 52% | 1010.2 hPa | 0 mm | - | - | - |
* Rain since midnight (hover to see other rain measurements)
** Current wind speed in m/s (hover to see current wind gust speed)